Regional Weather Roundup
Issued by NWS

Home | Current Version | Previous Version | Graphics & Text | Print | Product List | Glossary Off
Versions: 1 2 3 4 5 6 7 8 9 10 11 12 13 14 15 16 17 18 19 20 21 22 23 24 25 26 27 28 29 30 31 32 33 34 35 36 37 38 39 40 41 42 43 44 45 46 47 48 49 50

000
ASUS43 KTOP 260259
RWRKS

WEATHER ROUNDUP FOR KANSAS
NATIONAL WEATHER SERVICE GOODLAND KS
1000 PM CDT FRI JUL 25 2014

NOTE:  "FAIR" INDICATES FEW OR NO CLOUDS BELOW 12,000 FEET WITH NO
SIGNIFICANT WEATHER AND/OR OBSTRUCTIONS TO VISIBILITY.

KSZ001>006-013>018-027>032-041>047-260400-
NORTHWEST KANSAS

CITY           SKY/WX    TMP DP  RH WIND       PRES   REMARKS
GOODLAND       PTCLDY    80  64  58 E7        29.96R
HAYS           CLEAR     86  68  54 NE10      29.82R
HILL CITY      PTCLDY    84  69  60 N7        29.84R
RUSSELL        CLEAR     83  69  62 SW5       29.77R
$$

KSZ061>065-074>080-084>089-260400-
SOUTHWEST KANSAS

CITY           SKY/WX    TMP DP  RH WIND       PRES   REMARKS
DODGE CITY     PTCLDY    88  59  37 S13       29.85R
ELKHART          N/A     87  54  32 S14         N/A
GARDEN CITY    PTCLDY    88  62  41 E7        29.84R
GREAT BEND     CLEAR     91  63  38 SW12      29.79R
LIBERAL        PTCLDY    91  54  27 S16G23    29.87R
PRATT          PTCLDY    84  59  42 S12       29.84R
$$

KSZ066>073-081>083-090>101-260400-
SOUTHEAST KANSAS

CITY           SKY/WX    TMP DP  RH WIND       PRES   REMARKS
CHANUTE        CLEAR     83  73  72 S15G24    29.86R
COFFEYVILLE    CLEAR     82  74  76 S15       29.87R
HUTCHINSON     CLEAR     91  58  32 S12       29.80R
MEDICINE LODGE   N/A     90  57  32 S7        29.81R
NEWTON         CLEAR     88  61  40 S15       29.86R
PARSONS        CLEAR     83  73  72 S12G20    29.88R
WICHITA INTL   PTCLDY    86  66  51 S14       29.82R
WICHITA JABRA  CLEAR     87  71  58 S15       29.82R
WINFIELD       CLEAR     86  73  65 S18G25    29.85R
$$

KSZ007>012-019>026-033>040-048>060-102>105-260400-
NORTHEAST KANSAS

CITY           SKY/WX    TMP DP  RH WIND       PRES   REMARKS
CONCORDIA      CLEAR     86  75  69 CALM      29.78R HX  95
EMPORIA        PTCLDY    85  72  65 S14       29.81R
LAWRENCE       PTCLDY    89  73  59 S14G24    29.78R HX  97
MANHATTAN      CLEAR     90  68  48 S8        29.77R
OLATHE IND     PTCLDY    85  74  69 S16       29.81R
OLATHE EXE     PTCLDY    84  74  71 S15G22    29.81R
SALINA         CLEAR     89  62  40 S7        29.76R
TOPEKA BILLARD CLEAR     90  73  57 S12G20    29.77R HX  98
TOPEKA FORBES  CLEAR     88  73  61 S13       29.79R HX  95
$$


USA.gov is the U.S. government's official web portal to all federal, state and local government web resources and services.